Location: Bucquoy
(50.1391°N, 2.7097°E)
Time: 23:24:15
(UTC+00:00)

Cosmos 1025 Rocket - Pass Details

Date: 06 May 2021
Orbit: 593 x 618 km, 82.5° (Epoch: 21 June)

Event Time Altitude Azimuth Distance (km) Brightness Sun altitude
Exits shadow 02:31:17 - 166° (SSE) 2,203 5.6 -14.0°
Reaches altitude 10° 02:31:56 10° 163° (SSE) 1,947 5.3 -13.9°
Maximum altitude 02:36:00 42° 93° (E) 872 4.1 -13.5°
Drops below altitude 10° 02:40:08 10° 22° (NNE) 1,978 6.8 -13.1°
Sets 02:42:27 0° 16° (NNE) 2,891 7.7 -12.8°
